Home > Weather > Kristiansand > Past weeks

Flag for Norway Past Weather in Kristiansand, Norway — Yesterday and Last 2 Weeks

Now
63 °F

Sunny.


Feels Like: 63 °F
Forecast: 49 / 60 °F
Wind: 7 mph from Southwest

Location: Kristiansand / Kjevik

Current Time: May 27, 2016 at 8:13:33 PM

Latest Report: May 27, 2016 at 7:20 PM


Visibility: 10 mi

Pressure: 30.12 "Hg

Humidity: 59%

Dew Point: 48 °F

Location of KristiansandLocation

Past Weather in Kristiansand — Graph

°F

Kristiansand Temperature Yesterday

Maximum temperature yesterday: 63 °F (at 10:50 AM)
Minimum temperature yesterday: 41 °F (at 3:20 AM)
Average temperature yesterday: 53 °F

High & Low Weather Summary for the Past Weeks

 TemperatureHumidityPressure
High66 °F (May 23, 3:50 PM)100% (May 13, 3:50 AM)30.12 "Hg (May 13, 3:50 AM)
Low34 °F (May 15, 5:20 AM)22% (May 16, 5:50 PM)29.62 "Hg (May 17, 6:50 PM)
Average53 °F74%29.84 "Hg
* Reported May 12 6:20 PM — May 27 6:50 PM, Kristiansand, Weather by CustomWeather, © 2016

Note: Actual official high and low records may vary slightly from our data, if they occured in-between our weather recording intervals... More about our weather records

Advertising

Kristiansand Weather History for the Previous 24 Hours

Scroll right to see more
 ConditionsComfort  
Time TempWeatherWind HumidityBarometerVisibility
6:50 PM
Fri, May 27
63 °FSunny.8 mph56%30.12 "Hg10 mi
6:20 PM64 °FSunny.7 mph52%30.12 "Hg10 mi
5:50 PM64 °FPassing clouds.5 mph56%30.12 "HgN/A
5:20 PM64 °FPassing clouds.6 mph56%30.12 "HgN/A
4:50 PM64 °FPassing clouds.7 mph56%30.12 "HgN/A
4:20 PM64 °FSunny.12 mph56%30.12 "Hg10 mi
3:50 PM64 °FSunny.12 mph56%30.12 "Hg10 mi
3:20 PM66 °FPassing clouds.9 mph52%30.12 "HgN/A
2:50 PM64 °FSunny.10 mph52%30.12 "Hg10 mi
2:20 PM64 °FSunny.10 mph56%30.12 "Hg10 mi
1:50 PM64 °FSunny.10 mph56%30.12 "Hg10 mi
1:20 PM64 °FSunny.12 mph52%30.12 "Hg10 mi
12:50 PM64 °FPassing clouds.10 mph60%30.12 "HgN/A
12:20 PM64 °FPassing clouds.8 mph56%30.12 "HgN/A
11:50 AM64 °FSunny.7 mph60%30.12 "Hg10 mi
11:20 AM61 °FSunny.8 mph63%30.12 "Hg10 mi
10:50 AM61 °FSunny.3 mph63%30.12 "Hg10 mi
10:20 AM61 °FSunny.2 mph59%30.12 "Hg10 mi
9:50 AM59 °FSunny.1 mph63%30.12 "Hg10 mi
9:20 AM57 °FSunny.2 mph72%30.12 "Hg10 mi
8:50 AM55 °FSunny.1 mph77%30.12 "Hg10 mi
8:20 AM55 °FSunny.2 mph67%30.12 "Hg10 mi
7:50 AM54 °FSunny.7 mph77%30.12 "Hg10 mi
7:20 AM52 °FSunny.2 mph82%30.12 "Hg10 mi
6:50 AM52 °FSunny.No wind77%30.12 "Hg10 mi
6:20 AM50 °FSunny.2 mph82%30.12 "Hg10 mi
5:50 AM50 °FSunny.3 mph76%30.12 "Hg10 mi
5:20 AM50 °FOvercast.6 mph76%30.12 "HgN/A
4:50 AM48 °FOvercast.6 mph82%30.12 "HgN/A
4:20 AM48 °FPassing clouds.9 mph82%30.12 "HgN/A
3:50 AM46 °FPassing clouds.3 mph87%30.12 "HgN/A
3:20 AM46 °FOvercast.3 mph87%30.09 "HgN/A
2:50 AM46 °FOvercast.5 mph87%30.09 "HgN/A
2:20 AM45 °FPassing clouds.6 mph93%30.09 "HgN/A
1:50 AM45 °FPassing clouds.7 mph93%30.09 "HgN/A
1:20 AM45 °FPassing clouds.6 mph93%30.09 "HgN/A
12:50 AM45 °FPassing clouds.6 mph93%30.09 "HgN/A
12:20 AM45 °FPassing clouds.5 mph93%30.09 "HgN/A
11:50 PM
Thu, May 26
48 °FPassing clouds.2 mph87%30.09 "HgN/A
11:20 PM48 °FPassing clouds.5 mph87%30.09 "HgN/A
10:50 PM50 °FSunny.5 mph88%30.09 "Hg10 mi
10:20 PM52 °FSunny.1 mph82%30.09 "Hg10 mi
9:50 PM54 °FSunny.3 mph77%30.09 "Hg10 mi
9:20 PM54 °FPassing clouds.5 mph77%30.09 "HgN/A
8:50 PM55 °FSunny.6 mph72%30.07 "Hg10 mi
8:20 PM55 °FSunny.7 mph72%30.07 "Hg10 mi
Weather by CustomWeather, © 2016

See weather overviewHow to use our weather pages